STARLINK-32492, 62050

Orbit data source: Space-Track

STARLINK-32492, 62050 is a payload satellite owned by SpaceX/Seattle (US) in LEO that was launched on Thu, 21 Nov 2024 UTC via an FALCON 9 launch vehicle from the Air Force Eastern Test Range (AFETR). Payload-class satellites include a variety of spacecraft equipped with specific instruments for various scientific and technological missions. These include communications satellites like Starlink; space stations such as the ISS; scientific satellites like the Hubble; Earth observation satellites from companies like Planet Labs, Umbra, and HawkEye 360; GPS; miniature CubeSats for education and research; and military/defense satellites.

Loading next visibility...
Identifier
62050, 2024-216U
Orbit
LEO
Last TLE update
20 hours ago
Origin
Manufacturer
SpaceX/Seattle
Mission
Operational Commercial Communications
Bus & Motor
STARLINK V2M, Unknown motor
Mass
730 kg wet, ~700 kg dry
Launch date (UTC)
2024-11-21 (7 months ago)
Launch vehicle
FALCON 9
Launch site
Air Force Eastern Test Range (AFETR)
Object type
Payload
Rocket body
Debris
Shape & HBR
Box + 2 Pan, 29 m
Radar Cross Section
36.964 m², Large (>1 m²)

Expand to show TLE details & history

TLE from 20 hours ago
0 STARLINK-32492
1 62050U 24216U   25183.44538330  .00017169  00000-0  63188-3 0  9990
2 62050  43.0009 236.5208 0001003 281.3287  78.7452 15.27584299 35522
Epoch: 2025-07-02T10:41Z
TLE epoch observation values (Epoch: 2025-07-02T10:41:21.117Z)
Latitude
Longitude
155.45643°
Altitude
482.678 km
Speed
7.626 km/s
True Right ascension
15h 46m 04s
True Declination
0° 00' 00"
Sunlit
Object was in full shadow at epoch
Visualization orbit readout
Latitude
-5.36598°
Longitude
-23.42061°
Altitude
483.684 km
Speed
7.625 km/s
Apparent Right ascension
04h 46m 47s
Apparent Declination
-22° 44' 07"
Sunlit
Object is in daylight
Visualization observer readout
Local Sidereal Time
18:05:57
Azimuth
50.178° ENE
Elevation
-66.005°
Doppler factor
1
Orbital elements
Apogee altitude
485.67 km
Perigee altitude
484.293 km
Semi-major axis
6,863.118 km
Eccentricity
0.0001
Inclination
43.0009°
RAAN
236.5208°
Arg. of periapsis
281.3287°
True anomaly
Unknown
Mean anomaly
78.7452°
Eccentric anomaly
Unknown
Mean motion
3.81734 °/min
Orbital period
94.31 mins
BSTAR
0.00063188
Loading maneuver chart data...
Loading SW <> Apogee altitude chart data...
Loading historical data...
Loading historical data...
Loading historical data...
Loading historical data...
Loading historical data...
Loading historical data...
Loading historical data...

STARLINK-32492 Visibility forecast

Observer location: undefined°, undefined°

Span
Click to sort rows by Start time (UTC) header in descending order
Start Az.
Max El. time (UTC)
Max El. Az.
Max El.
End time (UTC)
End Az.
6 mins2025-07-03 07:19:17.994Z233.762° WSW2025-07-03 07:22:17.994Z139.692° SSE40.994°2025-07-03 07:25:17.994Z76.981° E
5 mins2025-07-03 08:59:17.994Z285.13° WNW2025-07-03 09:01:17.994Z5.271° NNE39.209°2025-07-03 09:04:17.994Z70.509° E
5 mins2025-07-03 10:38:17.994Z295.958° NW2025-07-03 10:40:17.994Z5.7° NNE41.721°2025-07-03 10:43:17.994Z91.237° ESE
5 mins2025-07-03 12:17:17.994Z267.233° W2025-07-03 12:19:17.994Z205.254° SW34.094°2025-07-03 12:22:17.994Z138.854° SSE
|